STARLINK-34493

Last updated on Thu Jul 03 2025 00:02:07 GMT+0000 (Coordinated Universal Time)

1 64472U 25133A 25183.58335648 -.01025793 00000+0 -50804-2 0 9995 2 64472 53.1558 210.8567 0000848 61.1942 274.1340 15.83849582 2729
UTC large
Height (km)
Speed (km/s)
/
Latitude / Longitude
Inclination (degrees)
Orbital Period (minutes)
Azimuth
Elevation
Range (km)
Doppler Factor

Next 0 passes for location: London (51.5072 / 0.1276)

Sorry there are no passes over London.